カタログに戻る

ASC 1

運用中通信GEO
NORAD 15994·PAYLOAD·🇺🇸 United States

打ち上げ Aug 27, 1985 から Cape Canaveral Space Force Station

Loading…

TLE

最新Source: Space-Track

元期: Sep 14, 2026, 06:26 UTC

1 15994U 85076C   26257.26864056 -.00000219  00000-0  00000-0 0  9996
2 15994  13.7459 342.6673 0001978 152.8767 225.7905  1.00302081118871

AllMySatでASC 1をリアルタイム追跡

Download on the App Store